Temperature
16 16 15 15 15 15 14 14 14 14 14 14 13 13 13 13 13 12 12 12 12 12 12 12 12 12 12 12 12 12 12 11 11 12 12 12 12 12 11 11 11 11 11
16 16 15 15 15 14 14 14 14 14 13 13 13 13 13 13 12 12 12 12 12 12 12 12 12 11 11 11 11 11 11 11 11 11 11 12 11 11 11 11 11 11 11
15 15 15 15 14 14 14 14 14 13 13 13 13 13 13 12 12 12 12 11 11 11 11 11 11 11 11 11 11 11 11 11 11 11 11 11 11 11 11 11 11 11 11
15 15 15 14 14 14 14 13 13 13 13 13 13 12 12 12 12 12 11 11 11 11 11 11 11 11 11 11 11 11 11 11 11 11 11 11 11 11 11 11 11 11 11
15 14 14 14 14 14 13 13 13 13 12 12 12 12 12 12 11 11 11 11 11 10 10 10 10 10 10 10 10 10 10 10 10 10 10 11 11 10 10 10 10 10 10
14 14 14 14 13 13 13 13 12 12 12 12 12 12 11 11 11 11 11 11 10 10 10 10 10 10 10 10 10 10 10 10 10 10 10 10 10 10 10 10 10 10 10
14 14 14 13 13 13 13 12 12 12 12 12 11 11 11 11 11 11 10 10 10 10 10 10 10 9 9 9 9 10 10 10 10 10 10 10 10 10 10 10 10 10 10
14 13 13 13 13 12 12 12 12 12 11 11 11 11 11 11 10 10 10 10 10 9 9 9 9 9 9 9 9 9 9 9 9 9 9 9 10 9 9 9 9 9 9
13 13 13 13 12 12 12 12 11 11 11 11 11 11 10 10 10 10 10 9 9 9 9 9 9 9 9 9 9 9 9 9 9 9 9 9 9 9 9 9 9 9 9
13 13 12 12 12 12 12 11 11 11 11 10 10 10 10 10 9 9 9 9 9 9 9 9 9 8 8 8 8 8 8 9 9 9 9 9 9 9 9 9 9 8 8
12 12 12 12 12 11 11 11 11 10 10 10 10 10 9 9 9 9 9 9 8 8 8 8 8 8 8 8 8 8 8 8 8 8 9 9 9 9 9 8 8 8 8
12 12 12 12 11 11 11 10 10 10 10 9 9 9 9 9 9 9 8 8 8 8 8 8 8 8 7 7 7 8 8 8 8 8 8 8 8 8 8 8 8 8 8
12 12 11 11 11 10 10 10 9 9 9 9 9 8 8 8 8 8 8 8 8 7 7 7 7 7 7 7 7 7 7 7 7 7 7 8 7 7 7 7 8 8 8
11 11 11 11 10 10 9 9 9 9 9 8 8 8 8 8 8 7 7 7 7 7 7 7 7 7 7 7 7 7 7 7 7 7 7 7 7 7 7 7 7 7 7
11 11 10 10 10 9 9 9 8 8 8 8 8 8 8 8 7 7 7 7 7 7 7 6 7 7 7 6 6 6 6 6 6 6 6 6 6 6 6 6 6 6 6
11 10 10 10 9 9 8 8 8 8 7 7 7 7 7 7 7 6 6 6 6 6 6 6 6 6 6 6 6 6 6 6 6 6 6 6 6 6 6 6 6 6 6
10 10 10 9 9 8 8 8 7 7 7 7 6 6 6 6 6 6 6 6 6 6 5 5 5 5 5 5 5 5 5 5 5 5 5 5 5 5 5 5 5 5 5
9 9 9 9 8 8 8 7 7 7 7 6 6 6 6 6 5 5 5 5 5 5 5 5 5 5 5 5 5 5 5 5 5 5 5 5 5 5 5 5 5 5 5
9 8 8 8 8 7 7 7 7 6 6 6 6 5 5 5 5 5 5 5 5 4 4 4 4 4 4 4 4 4 4 4 5 5 4 4 4 4 4 4 4 4 4
8 8 8 7 7 7 6 6 6 6 6 5 5 5 5 4 4 4 4 4 4 4 4 4 4 4 4 4 4 4 4 4 4 4 4 4 4 4 4 4 4 3 3
8 7 7 7 7 6 6 6 5 5 5 5 5 4 4 4 4 4 4 4 3 3 3 3 3 3 3 3 3 3 3 3 3 3 3 3 3 3 3 3 3 3 3
7 7 7 6 6 6 5 5 5 5 4 4 4 4 4 4 3 3 3 3 3 3 3 3 3 3 2 2 2 2 2 2 2 3 3 3 3 3 3 3 3 3 2
7 6 6 6 5 5 5 5 4 4 4 4 4 4 3 3 3 3 3 3 3 3 3 2 2 2 2 2 2 2 2 2 2 2 2 2 2 2 2 2 2 2 2
6 6 6 5 5 5 5 4 4 4 3 3 3 3 3 3 3 3 3 2 2 2 2 2 2 2 2 2 2 1 1 2 2 2 2 2 2 2 2 2 2 1 1
6 5 5 5 5 4 4 4 4 3 3 3 3 3 3 3 2 2 2 2 2 2 2 2 1 1 1 1 1 1 1 1 1 1 1 1 1 1 1 1 1 1 1
5 5 5 4 4 4 4 3 3 3 3 3 3 3 2 2 2 2 2 2 2 1 1 1 1 1 1 1 1 1 1 1 1 1 1 1 1 1 1 1 0 0 0
Wind_Speed
4 4 4 3 2 3 2 2 2 1 2 2 2 1 1 1 1 1 2 2 2 2 1 2 2 2 1 1 1 1 2 3 3 3 2 2 2 2 2 2 3 3 4
4 4 3 3 3 2 1 1 1 1 1 2 2 1 1 1 1 2 2 2 3 2 2 2 2 2 2 2 2 2 2 3 4 4 2 2 2 2 2 2 2 3 4
4 5 4 3 3 2 1 1 1 1 1 1 2 1 1 1 1 1 2 2 2 2 2 2 3 2 2 2 2 2 2 2 2 3 3 2 1 1 1 2 2 2 3
5 5 4 3 3 2 2 2 1 1 2 1 1 1 1 1 1 1 2 1 1 1 1 2 2 3 3 3 2 3 2 2 2 2 2 2 2 1 1 1 2 2 3
5 4 3 2 2 3 2 2 2 2 2 1 1 1 0 1 1 1 2 2 2 1 1 2 2 3 3 3 2 2 2 2 2 2 2 2 2 1 2 2 2 3 3
5 4 3 3 3 2 2 2 2 2 1 2 1 0 0 1 1 2 2 2 2 1 1 2 2 3 4 4 4 3 3 3 3 3 3 3 4 4 3 2 2 1 3
5 4 4 4 3 3 2 2 2 1 1 1 1 1 1 2 1 0 1 1 1 1 2 2 2 3 2 2 3 3 3 4 4 4 4 5 4 4 3 3 3 3 4
5 4 4 4 3 3 3 2 1 1 1 1 0 1 1 2 1 0 1 1 0 1 2 2 2 3 2 1 2 2 3 4 4 3 4 5 4 4 4 4 4 3 3
5 4 4 4 4 3 3 2 1 1 1 1 0 1 1 3 2 1 2 1 0 2 2 2 2 2 3 2 1 2 3 4 4 4 4 4 5 4 1 1 1 0 2
5 4 4 4 4 4 3 2 1 2 1 1 1 1 1 2 3 2 2 1 0 2 2 3 3 3 3 2 2 2 3 5 3 3 3 4 3 3 3 3 3 2 1
4 4 4 4 4 4 3 2 2 2 2 2 2 2 2 2 2 2 2 1 0 1 2 3 3 4 3 3 2 3 5 4 3 3 2 2 2 2 2 3 3 3 3
5 5 4 3 3 3 3 2 2 3 2 1 1 2 2 3 3 2 2 2 2 1 2 3 3 3 3 3 2 3 4 3 1 1 1 2 2 3 3 3 4 5 5
5 4 4 3 2 3 3 3 2 2 2 1 1 0 2 2 3 3 3 3 3 1 2 3 4 3 3 3 3 4 2 1 1 1 2 3 3 4 3 2 3 3 3
5 4 4 4 2 2 2 2 2 2 1 1 1 1 1 2 2 2 2 2 2 2 2 3 3 3 2 2 3 3 2 1 1 3 3 3 2 2 2 2 2 2 2
5 4 3 3 3 2 1 1 2 2 3 2 2 2 1 1 3 3 2 2 2 2 2 2 2 2 2 2 2 2 2 2 2 3 3 2 2 2 2 2 1 1 2
5 4 3 3 2 2 2 0 1 0 0 1 1 1 1 2 2 2 3 3 3 2 1 1 1 1 2 2 2 3 2 3 3 3 3 3 3 3 3 2 1 2 3
6 5 3 3 3 2 2 2 1 1 2 1 1 1 1 1 1 2 2 2 2 1 1 1 2 2 2 3 3 3 3 4 3 3 3 4 3 3 3 3 2 3 3
5 5 4 3 3 3 3 2 2 2 1 1 2 2 2 1 1 2 2 2 2 1 1 2 2 3 3 3 3 3 4 3 3 3 3 4 3 3 3 3 3 4 4
4 4 3 3 3 3 2 2 2 2 1 1 1 2 2 2 1 1 1 1 1 2 2 2 3 3 3 4 4 4 4 4 4 4 4 4 4 3 4 4 4 5 4
4 5 4 3 3 2 2 2 2 2 2 1 2 2 1 1 1 1 1 1 2 2 3 3 3 4 4 4 4 4 4 4 4 4 4 4 4 4 4 5 4 4 4
4 4 5 3 3 3 3 3 2 2 2 2 3 3 2 1 2 2 2 2 2 3 3 3 3 3 3 3 4 4 5 4 4 4 4 4 4 4 4 4 4 4 4
4 3 3 3 3 3 3 3 2 2 3 3 2 2 3 1 2 2 3 3 3 3 3 3 3 3 3 4 4 4 5 5 4 4 4 4 4 4 4 3 3 4 4
4 4 3 3 3 3 3 2 2 2 3 3 2 2 2 2 3 3 3 3 3 3 3 3 3 3 4 4 5 4 5 5 5 5 4 4 4 4 3 4 4 4 4
4 4 4 3 3 3 3 3 3 3 3 3 3 3 3 3 3 3 3 3 3 3 3 3 3 5 5 5 5 5 6 6 6 5 5 4 4 4 3 3 4 4 4
4 4 4 3 3 3 3 3 3 3 3 3 3 3 3 3 3 3 3 2 3 3 4 4 4 4 5 6 6 6 7 8 7 6 5 3 3 3 3 3 3 3 3
4 4 3 3 3 3 3 3 3 3 3 3 3 3 3 3 3 3 2 2 3 3 4 4 5 5 6 6 6 7 8 8 7 6 5 3 2 3 3 3 3 3 3
Wind_Direction
160 160 155 157 147 144 154 181 183 173 166 159 175 178 182 194 192 180 190 173 182 202 210 201 230 217 212 220 199 196 200 183 220 264 247 256 245 278 307 284 276 268 277
158 143 141 136 129 128 139 160 155 168 179 166 159 163 186 198 186 181 197 189 190 203 221 218 245 231 223 222 211 223 222 204 200 242 265 264 251 259 283 293 285 276 270
142 135 128 121 122 127 132 121 120 142 135 124 138 157 178 181 170 191 189 189 193 210 214 217 237 222 241 240 229 234 237 225 203 214 252 259 265 271 292 306 307 292 279
138 134 133 136 136 134 121 115 106 105 111 123 145 167 181 177 182 189 170 173 193 226 230 227 229 224 235 238 239 240 233 225 211 216 242 258 260 268 222 269 302 300 297
135 136 146 141 122 112 108 103 96 93 104 111 109 106 180 198 210 197 185 186 188 237 281 272 253 254 262 251 251 236 216 214 220 232 245 256 258 250 245 235 259 299 292
138 143 144 133 122 117 113 107 99 82 70 79 72 60 332 280 258 203 172 182 191 199 256 283 278 274 279 273 266 251 218 209 218 226 243 245 255 244 237 228 228 283 285
140 137 134 134 130 127 118 102 107 99 75 69 44 29 314 299 307 210 172 166 194 214 227 257 284 294 288 267 275 277 261 252 225 219 232 244 250 237 221 226 227 234 248
140 138 136 135 136 129 115 113 111 103 110 102 54 335 330 329 341 52 90 113 167 273 256 241 250 275 274 259 261 277 277 273 255 241 240 253 257 243 223 222 226 241 274
151 156 158 153 144 136 135 146 143 126 114 109 70 30 2 339 358 54 75 95 15 303 293 278 258 256 277 276 246 265 291 297 293 279 279 286 289 283 241 137 138 265 279
174 171 159 151 149 155 164 161 134 131 129 96 48 18 354 336 357 21 52 99 348 311 314 305 294 282 281 270 228 235 264 280 294 301 304 308 309 298 254 208 200 214 250
164 149 146 148 153 155 146 139 125 119 103 86 58 8 349 341 356 14 25 46 299 308 310 306 305 317 303 285 258 240 259 272 268 264 276 294 308 305 284 258 229 214 222
143 144 149 148 145 143 141 133 119 120 111 98 62 13 347 339 353 353 7 7 359 292 289 295 301 323 318 310 287 288 288 292 277 275 292 291 289 289 286 273 262 249 243
139 143 146 138 127 131 140 138 121 119 127 130 108 4 331 336 335 345 352 358 1 342 293 306 319 336 334 326 331 329 319 295 264 272 273 270 268 271 282 295 298 290 283
151 152 147 141 132 118 124 139 145 161 164 166 175 243 310 332 334 338 331 330 344 336 327 332 343 350 346 336 343 338 324 288 261 255 264 268 279 287 280 282 293 303 304
157 155 150 147 150 146 144 166 174 197 188 189 204 199 202 282 297 320 339 323 310 300 321 346 354 357 353 342 339 329 317 314 299 288 275 281 280 274 277 276 264 271 258
157 157 158 155 151 151 151 45 354 174 199 201 187 179 238 271 310 328 332 323 327 338 17 328 312 309 300 300 303 307 300 295 289 287 283 275 274 272 279 288 271 254 264
167 168 166 161 160 166 171 174 204 355 25 17 318 291 297 302 307 309 315 322 330 18 43 289 286 283 286 288 288 286 284 285 284 281 279 277 273 271 275 276 277 274 275
166 169 165 169 173 181 183 185 186 188 250 316 313 314 316 305 291 297 316 358 346 1 295 283 287 283 277 275 278 278 280 286 285 280 276 276 273 269 271 267 261 266 269
166 168 169 169 169 172 172 169 177 189 205 251 309 321 324 327 333 329 9 9 291 291 287 287 284 285 286 279 277 276 273 273 277 274 272 271 270 267 269 268 264 267 268
172 176 168 162 158 159 162 167 181 194 206 227 254 270 295 343 326 322 324 304 282 280 280 279 281 281 282 284 285 280 277 278 280 274 269 267 263 257 259 261 261 265 265
171 179 173 158 166 174 180 191 197 201 215 234 251 258 254 242 258 266 269 273 273 274 278 279 282 286 286 286 288 287 280 276 274 274 270 265 263 263 259 254 257 259 264
170 169 166 169 175 181 191 197 198 209 224 236 261 265 269 259 258 264 265 269 275 277 278 280 284 286 283 283 285 287 286 286 281 275 273 270 264 262 261 257 258 260 258
165 166 165 171 179 189 192 198 206 214 223 232 240 252 259 259 263 267 269 272 275 279 286 285 285 295 300 293 286 277 275 276 276 272 272 275 272 268 263 258 255 259 260
167 169 173 177 181 188 197 208 213 216 221 230 239 245 250 256 262 267 268 274 275 278 285 284 283 287 295 304 304 298 293 295 293 286 275 266 268 270 267 263 260 260 260
169 172 176 182 189 197 205 212 217 221 226 232 239 247 255 259 262 265 270 276 280 281 285 289 291 291 294 298 305 311 316 317 315 306 292 277 273 276 276 272 269 271 268
174 177 181 184 191 199 206 212 220 226 230 236 239 242 248 254 257 261 270 279 282 283 286 290 293 293 297 299 304 312 317 320 321 314 302 295 287 291 293 288 282 276 276
Height
1513 1515 1516 1517 1518 1518 1519 1519 1520 1520 1520 1519 1520 1520 1519 1519 1519 1519 1518 1518 1519 1519 1519 1519 1519 1519 1520 1520 1520 1520 1520 1520 1519 1518 1518 1518 1518 1517 1517 1517 1516 1515 1514
1510 1512 1513 1515 1515 1516 1516 1517 1517 1517 1517 1517 1517 1517 1517 1517 1516 1516 1516 1516 1516 1516 1516 1516 1516 1516 1517 1517 1517 1517 1517 1517 1516 1515 1515 1515 1515 1515 1514 1514 1513 1512 1511
1507 1509 1511 1512 1513 1513 1514 1514 1514 1514 1514 1514 1514 1514 1514 1514 1514 1514 1514 1514 1513 1513 1513 1513 1513 1514 1513 1514 1514 1514 1514 1514 1513 1513 1512 1512 1512 1512 1511 1510 1510 1509 1508
1505 1506 1508 1509 1510 1511 1511 1511 1511 1511 1512 1512 1512 1512 1512 1511 1511 1511 1511 1511 1511 1511 1511 1510 1510 1510 1510 1510 1510 1510 1510 1510 1510 1510 1509 1509 1508 1508 1508 1507 1506 1505 1505
1502 1503 1505 1507 1508 1508 1508 1508 1508 1509 1509 1509 1509 1509 1509 1509 1509 1508 1508 1508 1508 1508 1508 1508 1507 1507 1507 1507 1507 1507 1507 1507 1507 1506 1506 1505 1505 1504 1504 1503 1502 1502 1501
1500 1501 1503 1504 1505 1505 1506 1506 1506 1506 1507 1507 1507 1507 1506 1506 1506 1506 1506 1506 1505 1505 1504 1504 1504 1504 1504 1504 1504 1504 1504 1504 1503 1503 1502 1502 1501 1501 1500 1500 1499 1498 1497
1497 1499 1500 1501 1502 1503 1503 1503 1503 1504 1504 1504 1504 1504 1504 1504 1503 1503 1503 1503 1502 1502 1501 1501 1501 1501 1501 1501 1501 1501 1501 1500 1501 1500 1499 1498 1498 1497 1497 1496 1495 1495 1494
1495 1496 1497 1498 1499 1500 1501 1501 1501 1501 1501 1502 1501 1501 1501 1501 1501 1500 1500 1500 1499 1499 1499 1498 1498 1498 1498 1498 1497 1497 1497 1497 1497 1496 1496 1495 1495 1494 1493 1493 1492 1491 1491
1492 1493 1494 1496 1496 1497 1498 1499 1499 1499 1499 1499 1499 1499 1498 1498 1498 1498 1498 1497 1496 1496 1495 1495 1495 1494 1495 1494 1494 1493 1493 1493 1493 1493 1492 1492 1491 1491 1490 1489 1488 1487 1486
1490 1491 1492 1493 1494 1495 1495 1496 1496 1496 1496 1497 1496 1496 1496 1496 1496 1495 1495 1494 1493 1493 1492 1492 1491 1491 1491 1491 1490 1490 1489 1489 1489 1489 1488 1488 1488 1487 1486 1486 1485 1484 1483
1487 1489 1490 1491 1492 1493 1493 1494 1494 1494 1494 1494 1494 1494 1494 1493 1493 1493 1492 1491 1490 1489 1488 1488 1487 1487 1487 1487 1487 1486 1486 1486 1485 1484 1484 1484 1483 1483 1482 1482 1482 1481 1480
1485 1486 1487 1489 1490 1490 1491 1491 1492 1492 1492 1491 1491 1491 1491 1491 1491 1490 1490 1489 1488 1487 1486 1485 1484 1484 1484 1484 1483 1482 1482 1482 1481 1480 1480 1479 1479 1478 1478 1478 1477 1477 1477
1482 1484 1485 1486 1487 1488 1488 1489 1489 1489 1489 1489 1489 1488 1488 1488 1488 1487 1487 1486 1485 1484 1483 1482 1482 1481 1481 1480 1480 1479 1478 1477 1477 1476 1475 1475 1475 1474 1474 1473 1473 1472 1472
1480 1481 1483 1484 1485 1485 1486 1486 1486 1486 1486 1486 1486 1486 1485 1485 1485 1484 1483 1483 1482 1481 1480 1480 1479 1479 1478 1477 1476 1476 1475 1474 1473 1472 1471 1471 1471 1470 1469 1469 1468 1467 1466
1477 1479 1480 1481 1482 1482 1483 1483 1483 1484 1484 1484 1483 1483 1482 1482 1482 1481 1480 1479 1478 1478 1477 1476 1475 1475 1474 1473 1472 1472 1471 1470 1469 1468 1468 1467 1466 1465 1465 1464 1464 1463 1462
1474 1475 1477 1478 1479 1480 1480 1481 1481 1481 1481 1481 1481 1481 1480 1480 1479 1478 1477 1476 1476 1475 1474 1473 1472 1471 1470 1469 1468 1468 1467 1466 1465 1465 1464 1463 1462 1461 1460 1460 1459 1459 1458
1472 1473 1474 1475 1476 1477 1477 1477 1477 1478 1478 1478 1478 1478 1477 1476 1476 1475 1474 1473 1472 1472 1470 1469 1468 1468 1467 1466 1465 1464 1463 1463 1462 1461 1460 1459 1458 1457 1456 1455 1455 1454 1454
1469 1470 1471 1472 1473 1473 1474 1474 1474 1474 1474 1474 1475 1474 1474 1473 1472 1471 1471 1470 1468 1467 1467 1466 1465 1464 1463 1462 1461 1460 1459 1458 1457 1456 1455 1455 1454 1453 1452 1451 1450 1450 1449
1465 1466 1468 1469 1470 1470 1471 1471 1471 1471 1471 1471 1470 1470 1470 1469 1469 1468 1467 1466 1464 1463 1463 1462 1461 1460 1459 1458 1457 1456 1455 1453 1452 1452 1451 1450 1449 1448 1447 1446 1446 1445 1444
1462 1463 1464 1465 1466 1466 1467 1467 1467 1467 1467 1467 1466 1466 1466 1465 1464 1463 1462 1462 1461 1460 1459 1458 1457 1456 1455 1454 1452 1451 1450 1449 1448 1446 1446 1445 1444 1444 1443 1441 1441 1440 1439
1458 1459 1460 1461 1462 1462 1463 1463 1463 1463 1463 1463 1463 1463 1462 1461 1460 1459 1459 1458 1457 1456 1455 1454 1453 1452 1450 1449 1448 1447 1445 1444 1443 1442 1441 1440 1439 1439 1438 1437 1436 1435 1434
1455 1455 1456 1457 1458 1459 1459 1459 1459 1459 1459 1459 1459 1459 1458 1458 1457 1456 1455 1454 1453 1452 1451 1450 1449 1448 1446 1445 1444 1442 1440 1439 1438 1437 1436 1435 1434 1433 1432 1431 1430 1430 1429
1451 1452 1452 1453 1454 1455 1455 1455 1455 1455 1455 1455 1455 1455 1454 1454 1453 1452 1451 1450 1449 1448 1447 1446 1444 1443 1442 1441 1440 1438 1436 1435 1434 1433 1431 1430 1429 1428 1427 1426 1426 1425 1424
1447 1448 1449 1449 1450 1451 1451 1451 1451 1452 1452 1451 1451 1451 1450 1449 1449 1448 1447 1446 1445 1444 1443 1442 1440 1439 1438 1437 1435 1434 1432 1431 1429 1428 1427 1426 1425 1424 1423 1422 1421 1421 1420
1443 1444 1445 1445 1446 1447 1447 1447 1447 1448 1447 1447 1447 1446 1446 1445 1444 1444 1443 1442 1441 1440 1439 1438 1436 1435 1434 1432 1431 1430 1428 1427 1425 1424 1423 1422 1421 1420 1419 1418 1417 1417 1416
1440 1440 1441 1442 1442 1443 1443 1443 1443 1443 1443 1443 1442 1442 1441 1441 1440 1439 1438 1437 1436 1435 1434 1433 1432 1431 1430 1428 1427 1425 1424 1422 1421 1420 1419 1418 1417 1416 1415 1414 1414 1413 1412